Showing default

HXMT, 42758

Orbit data source: Space-Track

HXMT, 42758 is a payload satellite owned by CNSA (CN) in LEO that was launched on Thu, 15 Jun 2017 UTC via a CHANG ZHENG 4B launch vehicle from the Jiuquan Satellite Launch Center, China (JSC). Payload-class satellites include a variety of spacecraft equipped with specific instruments for various scientific and technological missions. These include communications satellites like Starlink; space stations such as the ISS; scientific satellites like the Hubble; Earth observation satellites from companies like Planet Labs, Umbra, and HawkEye 360; GPS; miniature CubeSats for education and research; and military/defense satellites.

Loading next visibility...
Identifier
42758, 2017-034A
Orbit
LEO
Country
Flag of CNCN / PRC
Related business
Manufacturer
CAST
Mission
Operational Civil Astronomy
Bus & Motor
ZY, Unknown motor
Mass
3,000 kg wet, ~2,900 kg dry
Launch date (UTC)
2017-06-15 (9 years ago)
Launch vehicle
CHANG ZHENG 4B
Launch site
Jiuquan Satellite Launch Center, China (JSC)
Object type
Payload
Rocket body
Debris
Shape & HBR
Box + 2 Pan, 5.0 m
Radar Cross Section
10.304 m², Large (>1 m²)

Expand to show TLE details & history
Last TLE update: 6 hours ago

TLE from 6 hours ago
0 HXMT
1 42758U 17034A   26126.95145763  .00004087  00000-0  20564-3 0  9997
2 42758  43.0152  52.5837 0032917 244.7890 114.9544 15.18105807491399
Epoch: 2026-05-06T22:50Z
TLE epoch observation values (Epoch: 2026-05-06T22:50:05.939Z)
Latitude
-0.00001°
Longitude
-154.74564°
Altitude
520.972 km
Speed
7.599 km/s
True Right ascension
03h 30m 20s
True Declination
0° 00' 00"
Sunlit
Object was in daylight at epoch
Visualization orbit readout
Latitude
Unknown
Longitude
Unknown
Altitude
Unknown
Speed
Unknown
Apparent Right ascension
Unknown
Apparent Declination
Unknown
Sunlit
N/A
Visualization observer readout
Local Sidereal Time
12:41:10
Azimuth
Unknown
Elevation
Unknown
Doppler factor
Unknown
Orbital elements
Apogee altitude
536.186 km
Perigee altitude
490.815 km
Semi-major axis
6,891.637 km
Eccentricity
0.00329
Inclination
43.0152°
RAAN
52.5837°
Arg. of periapsis
244.789°
True anomaly
115.29579°
Mean anomaly
114.9544°
Eccentric anomaly
115.12516°
Mean motion
3.79367 °/min
Orbital period
94.89 mins
BSTAR
0.00020564
Loading maneuver chart data...
Computing Atmospheric mass density...
Loading historical data...
Loading historical data...
Loading historical data...
Loading historical data...
Loading historical data...
Loading historical data...
Loading historical data...

Documentation

Showing up to 5 results
|